Preview of NWS' New Version of Forecast
This preview is not operational and should not be used for support decisions.

Regional Weather Roundup (RWR)

Issued by National Weather Service (NWS)

                            
000
ASUS43 KDMX 211901
RWRIA 

WEATHER ROUNDUP FOR IOWA
NATIONAL WEATHER SERVICE DES MOINES IA
200 PM CDT SUN APR 21 2019

NOTE: "FAIR" INDICATES FEW OR NO CLOUDS BELOW 12,000 FEET WITH NO
SIGNIFICANT WEATHER AND/OR OBSTRUCTIONS TO VISIBILITY.

* - THESE STATIONS ARE NOT NWS STATIONS...THUS NOT UNDER NWS
QUALITY CONTROL.  THEY ALSO DO NOT REPORT WEATHER SUCH 
AS PRECIPITATION OR FOG.  

IAZ001>003-012>014-020>022-031>034-043>046-212000-
   NORTHWEST IOWA
  
CITY           SKY/WX    TMP DP  RH WIND       PRES   REMARKS
CARROLL *      CLOUDY    84  50  30 S24G35    29.72S HX  82           
CHEROKEE *     CLOUDY    78  49  35 S16G23    29.69S                  
DENISON *      CLOUDY    79  48  34 S21G30    29.70F                  
LE MARS *      CLOUDY    75  50  41 S17       29.69R                  
SHELDON *      MOSUNNY   77  50  38 S14       29.68S                  
SIOUX CITY     PTSUNNY   75  51  43 S15       29.68R                  
SPENCER        MOSUNNY   82  51  34 S17G29    29.70F HX  81           
STORM LAKE *     N/A     82  48  30 S24G32    29.67F HX  81           
$$
 
IAZ055>058-069>071-079>083-090>094-212000-
   SOUTHWEST IOWA
  
CITY           SKY/WX    TMP DP  RH WIND       PRES   REMARKS
ATLANTIC *     PTSUNNY   79  50  36 S18G31    29.72S                  
AUDUBON *      CLOUDY    81  48  32 CALM      29.74S HX  80           
CLARINDA *     MOSUNNY   81  50  34 S22G29    29.75F HX  80           
COUNCIL BLFS * MOSUNNY   79  50  36 S22G32    29.70F                  
CRESTON *      CLOUDY    77  50  38 S23       29.77F                  
HARLAN  *      CLOUDY    77  48  36 S22G32    29.71S                  
LAMONI         MOSUNNY   77  47  34 S15G29    29.80F                  
RED OAK *      CLOUDY    84  52  32 S28G33    29.72F HX  82           
SHENANDOAH *   MOSUNNY   86  52  30 S23G33    29.70F HX  84           
$$
 
IAZ047>049-059>061-072>074-084-212000-
   CENTRAL IOWA
  
CITY           SKY/WX    TMP DP  RH WIND       PRES   REMARKS
AMES           MOSUNNY   80  50  34 S25G33    29.77F HX  80           
ANKENY *         N/A     82  48  30 S20G30    29.78F HX  81           
BOONE *        PTSUNNY   84  48  28 S24G33    29.75F HX  82           
CHARITON *     SUNNY     82  48  30 S21G31    29.81F HX  81           
DES MOINES     MOSUNNY   83  48  29 S20G33    29.78F HX  81           
GRINNELL*      MOSUNNY   82  47  29 S23       29.85R HX  80           
KNOXVILLE *    SUNNY     82  45  26 S20G29    29.81F HX  80           
MARSHALLTOWN   SUNNY     84  50  30 S26G37    29.79F HX  82           
NEWTON *       SUNNY     82  46  28 S22G32    29.81F HX  81           
PELLA *        MOSUNNY   83  42  22 S22G30    29.84S HX  81           
PERRY *        FAIR      83  44  26 S24G30    29.74F HX  81           
$$
 
IAZ004>006-015-016-023>025-035-036-212000-
   NORTH CENTRAL IOWA
  
CITY           SKY/WX    TMP DP  RH WIND       PRES   REMARKS
ALGONA *       SUNNY     84  50  30 S26G35    29.70F HX  82           
CLARION *      SUNNY     86  46  25 S31       29.73F HX  83           
ESTHERVILLE    SUNNY     83  50  31 S18G31    29.71F HX  81           
FORT DODGE *   MOSUNNY   81  50  33 S24G31    29.73F HX  80           
MASON CITY     SUNNY     83  53  35 S24G32    29.76F HX  82           
FOREST CITY *  FAIR      82  45  26 S24G36    29.74F HX  80           
IOWA FALLS *   FAIR      84  49  29 S25G32    29.78F HX  82           
$$

IAZ007>011-017>019-026>030-037>042-050>054-066-212000-
   NORTHEAST IOWA
  
CITY           SKY/WX    TMP DP  RH WIND       PRES   REMARKS
CEDAR RAPIDS   FAIR      82  47  29 S17G33    29.84F HX  80           
CHARLES CITY * FAIR      84  46  26 S29G37    29.78F HX  82           
CLINTON *      FAIR      79  46  31 S20G26    29.92F                  
DECORAH *      FAIR      81  46  30 S15G32    29.80F HX  80           
DUBUQUE        FAIR      79  45  29 S18G30    29.89F                  
MONTICELLO *   FAIR      81  46  30 S18G24    29.87F HX  80           
OELWEIN *      FAIR      82  48  30 S30       29.83S HX  81           
WATERLOO       FAIR      84  48  28 S21G35    29.79F HX  82           
$$
 
IAZ064-065-067-068-078-212000-
   EAST CENTRAL IOWA
  
CITY           SKY/WX    TMP DP  RH WIND       PRES   REMARKS
DAVENPORT      FAIR      82  42  24 S21G29    29.93F HX  80           
IOWA CITY      FAIR      83  48  29 S17G28    29.87F HX  81           
MT. PLEASANT * SUNNY     82  46  28 S20       29.90S HX  81           
MUSCATINE *    FAIR      81  46  30 S17       29.89F HX  80           
QUAD CITIES    FAIR      84  44  24 S17G26    29.90F HX  82           
$$
 
IAZ062-063-075>077-085>089-095>099-212000-
   SOUTHEAST IOWA
  
CITY           SKY/WX    TMP DP  RH WIND       PRES   REMARKS
BURLINGTON     SUNNY     80  50  34 S15G24    29.91F HX  80           
FAIRFIELD *    MOSUNNY   81  45  28 S22G29    29.86F                  
FORT MADISON * SUNNY     82  48  30 S13G21    29.92S HX  81           
KEOKUK *       SUNNY     79  46  31 S15G23    29.90F                  
OSKALOOSA *    FAIR      83  44  25 S21       29.86R HX  81           
CENTERVILLE *  FAIR      81  46  30 S16G26    29.87F HX  80           
OTTUMWA        MOSUNNY   81  47  30 S22G31    29.86S HX  80           
WASHINGTON *   SUNNY     84  45  24 S20G29    29.88S HX  82           
$$

ABBREVIATIONS USED IN REMARKS
   TC - TEMPERATURES IN CELSIUS
  WCI - WIND CHILL INDEX
   HX - HEAT INDEX
  VSB - VISIBILITY  
$$